Location: ?ern� Novina
(50.6762°N, 14.8696°E)
Time: 03:03:32
(UTC+00:00)

Cosmos 1666 - Pass Details

Date: 03 March 2021
Orbit: 497 x 518 km, 82.5° (Epoch: 13 April)

Event Time Altitude Azimuth Distance (km) Brightness Sun altitude
Rises 18:29:18 0° 182° (S) 2,575 6.2 -17.2°
Reaches altitude 10° 18:31:24 10° 179° (S) 1,698 5.2 -17.5°
Maximum altitude 18:35:05 67° 97° (E) 547 2.5 -18.1°
Drops below altitude 10° 18:38:49 10° 15° (NNE) 1,719 5.3 -18.7°
Sets 18:40:58 0° 13° (NNE) 2,611 6.3 -19.0°
